Location: Peralejo
(40.5415°N, 4.1259°W)
Time: 21:48:20
(UTC+00:00)

Cosmos 468 Rocket - Pass Details

Date: 18 April 2024
Orbit: 741 x 778 km, 74.0° (Epoch: 22 May)

Event Time Altitude Azimuth Distance (km) Brightness Sun altitude
Exits shadow 21:31:41 47° 51° (NE) 1,001 4.5 -25.8°
Drops below altitude 10° 21:35:32 10° 26° (NNE) 2,295 6.7 -26.4°
Sets 21:37:57 0° 23° (NNE) 3,230 7.5 -26.7°
